Time,TemperatureF,DewpointF,PressureIn,WindDirection,WindDirectionDegrees,WindSpeedMPH,WindSpeedGustMPH,Humidity,HourlyPrecipIn,Conditions,Clouds,dailyrainin,SoftwareType,DateUTC
2013-04-05 00:02:00,50.4,14.9,29.96,SW,223,2.2,2.2,24,0.00,,BKN220,0.00,VWS V13.01,2013-04-05 06:02:00,
2013-04-05 00:07:00,50.0,14.6,29.96,SW,223,0.0,2.7,24,0.00,,BKN220,0.00,VWS V13.01,2013-04-05 06:07:00,
2013-04-05 00:12:00,49.8,14.5,29.96,SW,222,0.0,2.7,24,0.00,,BKN220,0.00,VWS V13.01,2013-04-05 06:12:00,
2013-04-05 00:17:00,49.5,14.2,29.96,SW,222,0.0,0.0,24,0.00,,BKN220,0.00,VWS V13.01,2013-04-05 06:17:00,
2013-04-05 00:22:00,49.3,14.0,29.96,SW,222,0.0,0.0,24,0.00,,BKN220,0.00,VWS V13.01,2013-04-05 06:22:00,
2013-04-05 00:27:00,48.9,15.6,29.96,SW,222,0.0,0.0,26,0.00,,BKN220,0.00,VWS V13.01,2013-04-05 06:27:00,
2013-04-05 00:32:00,48.6,15.2,29.96,SW,222,0.0,0.0,26,0.00,,BKN220,0.00,VWS V13.01,2013-04-05 06:32:00,
2013-04-05 00:37:00,48.4,15.1,29.96,SW,222,0.0,0.0,26,0.00,,BKN220,0.00,VWS V13.01,2013-04-05 06:37:00,
2013-04-05 00:42:00,48.0,15.6,29.93,SW,222,0.0,0.0,27,0.00,,BKN220,0.00,VWS V13.01,2013-04-05 06:42:00,
2013-04-05 00:48:00,47.8,15.5,29.93,SW,222,0.0,0.0,27,0.00,,BKN220,0.00,VWS V13.01,2013-04-05 06:48:00,
2013-04-05 00:52:00,47.5,15.2,29.93,SW,222,0.0,0.0,27,0.00,,BKN220,0.00,VWS V13.01,2013-04-05 06:52:00,
2013-04-05 00:58:00,47.3,15.0,29.93,South,189,0.0,3.6,27,0.00,,BKN220,0.00,VWS V13.01,2013-04-05 06:58:00,
2013-04-05 01:03:00,47.1,14.9,29.93,South,188,4.0,4.9,27,0.00,,BKN220,0.00,VWS V13.01,2013-04-05 07:03:00,
2013-04-05 01:08:00,47.3,15.0,29.93,SSE,165,2.2,7.6,27,0.00,,BKN220,0.00,VWS V13.01,2013-04-05 07:08:00,
2013-04-05 01:13:00,47.3,15.0,29.93,SSE,164,3.1,7.6,27,0.00,,BKN220,0.00,VWS V13.01,2013-04-05 07:13:00,
2013-04-05 01:18:00,47.3,15.0,29.93,SE,136,4.9,6.7,27,0.00,,BKN220,0.00,VWS V13.01,2013-04-05 07:18:00,
2013-04-05 01:23:00,47.5,15.2,29.93,SSE,150,4.9,6.7,27,0.00,,BKN220,0.00,VWS V13.01,2013-04-05 07:23:00,
2013-04-05 01:28:00,47.5,15.2,29.93,SE,144,5.4,6.7,27,0.00,,BKN220,0.00,VWS V13.01,2013-04-05 07:28:00,
2013-04-05 01:33:00,47.5,15.2,29.93,SSE,150,5.8,5.8,27,0.00,,BKN220,0.00,VWS V13.01,2013-04-05 07:33:00,
2013-04-05 01:38:00,47.3,15.0,29.93,ESE,110,2.2,5.8,27,0.00,,BKN220,0.00,VWS V13.01,2013-04-05 07:38:00,
2013-04-05 01:43:00,47.3,15.0,29.93,SE,124,3.1,5.8,27,0.00,,BKN220,0.00,VWS V13.01,2013-04-05 07:43:00,
2013-04-05 01:48:00,47.1,14.9,29.93,SE,124,2.7,2.7,27,0.00,,BKN220,0.00,VWS V13.01,2013-04-05 07:48:00,
2013-04-05 01:53:00,46.9,14.7,29.93,ESE,114,2.2,3.1,27,0.00,,BKN220,0.00,VWS V13.01,2013-04-05 07:53:00,
2013-04-05 01:58:00,46.9,14.7,29.93,ESE,115,0.0,3.1,27,0.00,,BKN220,0.00,VWS V13.01,2013-04-05 07:58:00,
2013-04-05 02:03:00,46.9,14.7,29.93,ESE,115,0.0,0.0,27,0.00,,SCT220,0.00,VWS V13.01,2013-04-05 08:03:00,
2013-04-05 02:08:00,46.8,14.6,29.93,SE,127,3.1,3.6,27,0.00,,SCT220,0.00,VWS V13.01,2013-04-05 08:08:00,
2013-04-05 02:13:00,46.6,14.4,29.93,SE,141,2.7,4.0,27,0.00,,SCT220,0.00,VWS V13.01,2013-04-05 08:13:00,
2013-04-05 02:18:00,46.4,14.2,29.93,SE,141,0.0,0.0,27,0.00,,SCT220,0.00,VWS V13.01,2013-04-05 08:18:00,
2013-04-05 02:23:00,46.2,14.1,29.93,SE,141,0.0,0.0,27,0.00,,SCT220,0.00,VWS V13.01,2013-04-05 08:23:00,
2013-04-05 02:28:00,46.0,13.9,29.90,SE,142,0.0,0.0,27,0.00,,SCT220,0.00,VWS V13.01,2013-04-05 08:28:00,
2013-04-05 02:33:00,45.9,14.6,29.90,SE,142,2.2,2.7,28,0.00,,SCT220,0.00,VWS V13.01,2013-04-05 08:33:00,
2013-04-05 02:38:00,45.9,14.6,29.90,SE,142,2.2,2.7,28,0.00,,SCT220,0.00,VWS V13.01,2013-04-05 08:38:00,
2013-04-05 02:43:00,45.7,14.5,29.90,SE,141,0.0,2.7,28,0.00,,SCT220,0.00,VWS V13.01,2013-04-05 08:43:00,
2013-04-05 02:48:00,45.5,14.3,29.90,SE,141,0.0,0.0,28,0.00,,SCT220,0.00,VWS V13.01,2013-04-05 08:48:00,
2013-04-05 02:53:00,45.5,14.3,29.90,SE,141,2.7,2.7,28,0.00,,SCT220,0.00,VWS V13.01,2013-04-05 08:53:00,
2013-04-05 02:58:00,45.3,14.1,29.87,SE,141,0.0,2.7,28,0.00,,SCT220,0.00,VWS V13.01,2013-04-05 08:58:00,
2013-04-05 03:03:00,45.3,14.1,29.87,SE,141,0.0,0.0,28,0.00,,SCT220,0.00,VWS V13.01,2013-04-05 09:03:00,
2013-04-05 03:08:00,45.3,14.1,29.87,SE,142,0.0,0.0,28,0.00,,SCT220,0.00,VWS V13.01,2013-04-05 09:08:00,
2013-04-05 03:13:00,45.3,14.1,29.90,SE,142,0.0,0.0,28,0.00,,SCT220,0.00,VWS V13.01,2013-04-05 09:13:00,
2013-04-05 03:18:00,45.1,14.0,29.90,SE,141,0.0,0.0,28,0.00,,SCT220,0.00,VWS V13.01,2013-04-05 09:18:00,
2013-04-05 03:23:00,45.1,14.0,29.90,SE,141,0.0,0.0,28,0.00,,SCT220,0.00,VWS V13.01,2013-04-05 09:23:00,
2013-04-05 03:28:00,45.1,14.0,29.90,SE,141,0.0,0.0,28,0.00,,SCT220,0.00,VWS V13.01,2013-04-05 09:28:00,
2013-04-05 03:33:00,45.1,14.0,29.90,SE,141,0.0,0.0,28,0.00,,SCT220,0.00,VWS V13.01,2013-04-05 09:33:00,
2013-04-05 03:38:00,45.0,13.8,29.90,SE,142,0.0,0.0,28,0.00,,SCT220,0.00,VWS V13.01,2013-04-05 09:38:00,
2013-04-05 03:43:00,45.1,14.0,29.90,SE,142,0.0,0.0,28,0.00,,SCT220,0.00,VWS V13.01,2013-04-05 09:43:00,
2013-04-05 03:48:00,45.1,14.0,29.90,East,90,2.2,2.7,28,0.00,,SCT220,0.00,VWS V13.01,2013-04-05 09:48:00,
2013-04-05 03:53:00,45.1,14.0,29.90,East,90,0.0,2.7,28,0.00,,SCT220,0.00,VWS V13.01,2013-04-05 09:53:00,
2013-04-05 03:59:00,45.0,13.8,29.87,East,90,0.0,2.7,28,0.00,,SCT220,0.00,VWS V13.01,2013-04-05 09:59:00,
2013-04-05 04:04:00,45.1,14.0,29.87,SE,141,0.0,2.7,28,0.00,,SCT220,0.00,VWS V13.01,2013-04-05 10:04:00,
2013-04-05 04:09:00,45.0,13.8,29.87,SE,141,0.0,2.7,28,0.00,,SCT220,0.00,VWS V13.01,2013-04-05 10:09:00,
2013-04-05 04:14:00,45.0,13.8,29.87,SE,141,0.0,2.7,28,0.00,,SCT220,0.00,VWS V13.01,2013-04-05 10:14:00,
2013-04-05 04:19:00,44.8,13.7,29.87,SE,141,2.2,4.0,28,0.00,,SCT220,0.00,VWS V13.01,2013-04-05 10:19:00,
2013-04-05 04:24:00,44.6,14.3,29.87,SE,141,0.0,4.0,29,0.00,,SCT220,0.00,VWS V13.01,2013-04-05 10:24:00,
2013-04-05 04:29:00,44.6,14.3,29.87,SE,141,0.0,4.0,29,0.00,,SCT220,0.00,VWS V13.01,2013-04-05 10:29:00,
2013-04-05 04:34:00,44.4,14.2,29.87,SE,141,0.0,0.0,29,0.00,,SCT220,0.00,VWS V13.01,2013-04-05 10:34:00,
2013-04-05 04:39:00,44.2,14.0,29.87,SE,142,3.1,3.1,29,0.00,,SCT220,0.00,VWS V13.01,2013-04-05 10:39:00,
2013-04-05 04:44:00,44.2,14.0,29.87,SSE,149,0.0,4.0,29,0.00,,SCT220,0.00,VWS V13.01,2013-04-05 10:44:00,
2013-04-05 04:49:00,44.2,14.0,29.87,SSE,149,0.0,0.0,29,0.00,,SCT220,0.00,VWS V13.01,2013-04-05 10:49:00,
2013-04-05 04:55:00,44.1,13.9,29.87,South,177,0.0,0.0,29,0.00,,SCT220,0.00,VWS V13.01,2013-04-05 10:55:00,
2013-04-05 05:00:00,44.1,13.9,29.87,ESE,115,0.0,3.1,29,0.00,,SCT220,0.00,VWS V13.01,2013-04-05 11:00:00,
2013-04-05 05:05:00,43.9,13.7,29.87,ESE,115,0.0,0.0,29,0.00,,SCT220,0.00,VWS V13.01,2013-04-05 11:05:00,
2013-04-05 05:10:00,43.9,13.7,29.87,ESE,115,0.0,0.0,29,0.00,,SCT220,0.00,VWS V13.01,2013-04-05 11:10:00,
2013-04-05 05:15:00,43.7,13.5,29.87,ESE,115,0.0,0.0,29,0.00,,SCT220,0.00,VWS V13.01,2013-04-05 11:15:00,
2013-04-05 05:20:00,43.7,14.3,29.87,ESE,115,0.0,3.6,30,0.00,,SCT220,0.00,VWS V13.01,2013-04-05 11:20:00,
2013-04-05 05:25:00,43.7,14.3,29.87,ESE,115,0.0,3.6,30,0.00,,SCT220,0.00,VWS V13.01,2013-04-05 11:25:00,
2013-04-05 05:30:00,43.5,14.2,29.87,ESE,115,0.0,3.6,30,0.00,,SCT220,0.00,VWS V13.01,2013-04-05 11:30:00,
2013-04-05 05:35:00,43.5,14.2,29.87,ESE,115,0.0,0.0,30,0.00,,SCT220,0.00,VWS V13.01,2013-04-05 11:35:00,
2013-04-05 05:40:00,43.5,14.2,29.87,ESE,115,0.0,0.0,30,0.00,,SCT220,0.00,VWS V13.01,2013-04-05 11:40:00,
2013-04-05 05:45:00,43.5,14.2,29.87,ESE,115,0.0,0.0,30,0.00,,SCT220,0.00,VWS V13.01,2013-04-05 11:45:00,
2013-04-05 05:51:00,43.5,14.2,29.87,ESE,115,0.0,0.0,30,0.00,,SCT220,0.00,VWS V13.01,2013-04-05 11:51:00,
2013-04-05 05:56:00,43.3,14.0,29.87,ESE,115,0.0,0.0,30,0.00,,SCT220,0.00,VWS V13.01,2013-04-05 11:56:00,
2013-04-05 06:01:00,43.3,14.8,29.87,South,177,2.2,3.1,31,0.00,,SCT220,0.00,VWS V13.01,2013-04-05 12:01:00,
2013-04-05 06:06:00,43.3,14.8,29.87,South,177,2.2,2.7,31,0.00,,BKN220,0.00,VWS V13.01,2013-04-05 12:06:00,
2013-04-05 06:11:00,43.3,14.8,29.87,South,177,0.0,2.7,31,0.00,,BKN220,0.00,VWS V13.01,2013-04-05 12:11:00,
2013-04-05 06:16:00,43.3,14.8,29.87,SW,219,4.0,4.0,31,0.00,,BKN220,0.00,VWS V13.01,2013-04-05 12:16:00,
2013-04-05 06:21:00,43.3,14.8,29.87,SW,216,0.0,4.0,31,0.00,,BKN220,0.00,VWS V13.01,2013-04-05 12:21:00,
2013-04-05 06:26:00,43.3,14.8,29.87,SW,216,0.0,4.0,31,0.00,,BKN220,0.00,VWS V13.01,2013-04-05 12:26:00,
2013-04-05 06:31:00,43.3,14.8,29.87,SW,216,0.0,4.0,31,0.00,,BKN220,0.00,VWS V13.01,2013-04-05 12:31:00,
2013-04-05 06:36:00,43.3,15.5,29.87,SW,216,0.0,0.0,32,0.00,,BKN220,0.00,VWS V13.01,2013-04-05 12:36:00,
2013-04-05 06:41:00,43.3,15.5,29.87,SW,216,0.0,0.0,32,0.00,,BKN220,0.00,VWS V13.01,2013-04-05 12:41:00,
2013-04-05 06:46:00,43.3,15.5,29.87,SW,216,0.0,0.0,32,0.00,,BKN220,0.00,VWS V13.01,2013-04-05 12:46:00,
2013-04-05 06:51:00,43.2,15.3,29.87,SW,216,0.0,0.0,32,0.00,,BKN220,0.00,VWS V13.01,2013-04-05 12:51:00,
2013-04-05 06:56:00,43.2,15.3,29.87,SW,216,0.0,0.0,32,0.00,,BKN220,0.00,VWS V13.01,2013-04-05 12:56:00,
2013-04-05 07:01:00,43.2,15.3,29.87,SW,216,0.0,0.0,32,0.00,,BKN220,0.00,VWS V13.01,2013-04-05 13:01:00,
2013-04-05 07:06:00,43.2,15.3,29.87,SW,216,0.0,0.0,32,0.00,,BKN220,0.00,VWS V13.01,2013-04-05 13:06:00,
2013-04-05 07:11:00,43.3,15.5,29.87,SW,216,0.0,0.0,32,0.00,,BKN220,0.00,VWS V13.01,2013-04-05 13:11:00,
2013-04-05 07:16:00,43.3,15.5,29.87,SW,216,0.0,0.0,32,0.00,,BKN220,0.00,VWS V13.01,2013-04-05 13:16:00,
2013-04-05 07:21:00,43.3,16.2,29.87,SE,135,3.1,3.6,33,0.00,,BKN220,0.00,VWS V13.01,2013-04-05 13:21:00,
2013-04-05 07:27:00,43.5,17.0,29.87,SE,142,2.2,4.0,34,0.00,,BKN220,0.00,VWS V13.01,2013-04-05 13:27:00,
2013-04-05 07:32:00,43.5,17.0,29.87,SE,142,2.7,2.7,34,0.00,,BKN220,0.00,VWS V13.01,2013-04-05 13:32:00,
2013-04-05 07:37:00,43.7,17.2,29.87,SE,143,2.7,3.1,34,0.00,,BKN220,0.00,VWS V13.01,2013-04-05 13:37:00,
2013-04-05 07:42:00,43.9,18.0,29.87,SE,143,0.0,3.1,35,0.00,,BKN220,0.00,VWS V13.01,2013-04-05 13:42:00,
2013-04-05 07:47:00,44.2,18.3,29.87,SE,142,0.0,0.0,35,0.00,,BKN220,0.00,VWS V13.01,2013-04-05 13:47:00,
2013-04-05 07:52:00,44.8,18.8,29.87,SE,143,0.0,0.0,35,0.00,,BKN220,0.00,VWS V13.01,2013-04-05 13:52:00,
2013-04-05 07:57:00,45.1,19.1,29.87,SE,143,0.0,0.0,35,0.00,,BKN220,0.00,VWS V13.01,2013-04-05 13:57:00,
2013-04-05 08:02:00,45.3,18.6,29.87,SE,143,0.0,0.0,34,0.00,,BKN220,0.00,VWS V13.01,2013-04-05 14:02:00,
2013-04-05 08:07:00,45.9,19.8,29.87,SE,143,2.7,2.7,35,0.00,,BKN220,0.00,VWS V13.01,2013-04-05 14:07:00,
2013-04-05 08:12:00,46.4,20.2,29.87,SE,140,3.1,3.6,35,0.00,,BKN220,0.00,VWS V13.01,2013-04-05 14:12:00,
2013-04-05 08:17:00,46.8,19.9,29.87,SE,140,0.0,0.0,34,0.00,,BKN220,0.00,VWS V13.01,2013-04-05 14:17:00,
2013-04-05 08:22:00,47.3,20.4,29.87,SSE,147,3.1,4.0,34,0.00,,BKN220,0.00,VWS V13.01,2013-04-05 14:22:00,
2013-04-05 08:27:00,47.8,20.1,29.87,SSE,148,0.0,4.0,33,0.00,,BKN220,0.00,VWS V13.01,2013-04-05 14:27:00,
2013-04-05 08:32:00,48.4,20.6,29.87,SSE,147,0.0,0.0,33,0.00,,BKN220,0.00,VWS V13.01,2013-04-05 14:32:00,
2013-04-05 08:37:00,49.1,21.3,29.87,SSE,147,0.0,0.0,33,0.00,,BKN220,0.00,VWS V13.01,2013-04-05 14:37:00,
2013-04-05 08:43:00,49.6,21.7,29.87,SSE,148,0.0,0.0,33,0.00,,BKN220,0.00,VWS V13.01,2013-04-05 14:43:00,
2013-04-05 08:48:00,50.4,21.6,29.87,SSE,147,0.0,0.0,32,0.00,,BKN220,0.00,VWS V13.01,2013-04-05 14:48:00,
2013-04-05 08:53:00,51.3,22.4,29.87,SE,146,3.6,3.6,32,0.00,,BKN220,0.00,VWS V13.01,2013-04-05 14:53:00,
2013-04-05 08:58:00,52.2,22.5,29.87,SSE,149,2.7,4.0,31,0.00,,BKN220,0.00,VWS V13.01,2013-04-05 14:58:00,
2013-04-05 09:03:00,53.1,22.5,29.87,SSE,149,2.2,2.7,30,0.00,,BKN220,0.00,VWS V13.01,2013-04-05 15:03:00,
2013-04-05 09:08:00,54.0,23.2,29.87,SSE,149,0.0,2.7,30,0.00,,BKN220,0.00,VWS V13.01,2013-04-05 15:08:00,
2013-04-05 09:13:00,54.7,23.1,29.84,SSE,149,2.2,2.7,29,0.00,,BKN220,0.00,VWS V13.01,2013-04-05 15:13:00,
2013-04-05 09:18:00,55.6,23.0,29.84,SE,140,4.0,4.0,28,0.00,,BKN220,0.00,VWS V13.01,2013-04-05 15:18:00,
2013-04-05 09:23:00,56.3,23.6,29.84,SE,141,0.0,4.0,28,0.00,,BKN220,0.00,VWS V13.01,2013-04-05 15:23:00,
2013-04-05 09:28:00,57.0,24.3,29.84,SSE,163,2.7,4.0,28,0.00,,BKN220,0.00,VWS V13.01,2013-04-05 15:28:00,
2013-04-05 09:33:00,57.6,23.9,29.84,SE,143,4.5,5.4,27,0.00,,BKN220,0.00,VWS V13.01,2013-04-05 15:33:00,
2013-04-05 09:38:00,58.3,24.5,29.84,ESE,114,2.7,5.4,27,0.00,,BKN220,0.00,VWS V13.01,2013-04-05 15:38:00,
2013-04-05 09:43:00,58.8,24.0,29.84,ESE,111,0.0,5.4,26,0.00,,BKN220,0.00,VWS V13.01,2013-04-05 15:43:00,
2013-04-05 09:48:00,59.4,23.6,29.84,SSE,156,2.7,3.1,25,0.00,,BKN220,0.00,VWS V13.01,2013-04-05 15:48:00,
2013-04-05 09:53:00,60.1,24.2,29.84,SE,140,3.1,3.6,25,0.00,,BKN220,0.00,VWS V13.01,2013-04-05 15:53:00,
2013-04-05 09:58:00,60.6,24.6,29.84,ESE,113,3.6,4.0,25,0.00,,BKN220,0.00,VWS V13.01,2013-04-05 15:58:00,
2013-04-05 10:03:00,61.0,24.0,29.84,SSE,163,3.6,5.4,24,0.00,,BKN220,0.00,VWS V13.01,2013-04-05 16:03:00,
2013-04-05 10:08:00,61.5,24.4,29.84,SE,145,5.4,5.4,24,0.00,,BKN220,0.00,VWS V13.01,2013-04-05 16:08:00,
2013-04-05 10:13:00,62.1,24.9,29.84,South,188,3.6,5.4,24,0.00,,BKN220,0.00,VWS V13.01,2013-04-05 16:13:00,
2013-04-05 10:18:00,62.4,25.2,29.84,WSW,246,2.2,4.0,24,0.00,,BKN220,0.00,VWS V13.01,2013-04-05 16:18:00,
2013-04-05 10:24:00,63.0,25.6,29.84,South,172,3.1,4.9,24,0.00,,BKN220,0.00,VWS V13.01,2013-04-05 16:24:00,
2013-04-05 10:29:00,63.1,24.8,29.81,SE,127,2.7,5.4,23,0.00,,BKN220,0.00,VWS V13.01,2013-04-05 16:29:00,
2013-04-05 10:34:00,63.5,25.1,29.81,SE,139,3.1,5.8,23,0.00,,BKN220,0.00,VWS V13.01,2013-04-05 16:34:00,
2013-04-05 10:39:00,63.5,25.1,29.81,ESE,119,2.7,5.8,23,0.00,,BKN220,0.00,VWS V13.01,2013-04-05 16:39:00,
2013-04-05 10:44:00,63.9,23.2,29.81,SW,217,2.2,5.8,21,0.00,,BKN220,0.00,VWS V13.01,2013-04-05 16:44:00,
2013-04-05 10:49:00,64.0,25.5,29.81,SW,233,3.6,4.0,23,0.00,,BKN220,0.00,VWS V13.01,2013-04-05 16:49:00,
2013-04-05 10:54:00,64.2,25.7,29.81,West,259,0.0,4.0,23,0.00,,BKN220,0.00,VWS V13.01,2013-04-05 16:54:00,
2013-04-05 10:59:00,64.8,26.1,29.81,South,170,3.1,4.0,23,0.00,,BKN220,0.00,VWS V13.01,2013-04-05 16:59:00,
2013-04-05 11:05:00,64.9,22.9,29.81,South,183,2.7,5.8,20,0.00,,BKN220,0.00,VWS V13.01,2013-04-05 17:05:00,
2013-04-05 11:10:00,65.5,20.9,29.81,South,178,4.9,5.8,18,0.00,,BKN220,0.00,VWS V13.01,2013-04-05 17:10:00,
2013-04-05 11:15:00,65.8,21.2,29.81,SE,140,2.2,5.8,18,0.00,,BKN220,0.00,VWS V13.01,2013-04-05 17:15:00,
2013-04-05 11:20:00,66.2,20.1,29.81,SW,218,5.4,6.3,17,0.00,,BKN220,0.00,VWS V13.01,2013-04-05 17:20:00,
2013-04-05 11:25:00,66.7,20.6,29.81,ESE,106,2.7,6.3,17,0.00,,BKN220,0.00,VWS V13.01,2013-04-05 17:25:00,
2013-04-05 11:30:00,67.5,21.2,29.81,SSW,208,3.6,7.2,17,0.00,,BKN220,0.00,VWS V13.01,2013-04-05 17:30:00,
2013-04-05 11:35:00,68.0,21.6,29.81,South,175,6.3,6.3,17,0.00,,BKN220,0.00,VWS V13.01,2013-04-05 17:35:00,
2013-04-05 11:40:00,68.5,19.1,29.81,SE,138,6.3,8.1,15,0.00,,BKN220,0.00,VWS V13.01,2013-04-05 17:40:00,
2013-04-05 11:45:00,69.1,19.5,29.81,SSW,200,3.1,10.1,15,0.00,,BKN220,0.00,VWS V13.01,2013-04-05 17:45:00,
2013-04-05 11:50:00,69.6,22.9,29.81,SSE,157,6.3,6.3,17,0.00,,BKN220,0.00,VWS V13.01,2013-04-05 17:50:00,
2013-04-05 11:55:00,69.8,18.5,29.81,South,181,5.8,6.3,14,0.00,,BKN220,0.00,VWS V13.01,2013-04-05 17:55:00,
2013-04-05 12:00:00,69.6,20.0,29.78,SSW,205,2.7,6.3,15,0.00,,BKN220,0.00,VWS V13.01,2013-04-05 18:00:00,
2013-04-05 12:05:00,70.2,18.8,29.78,SSW,200,3.6,4.9,14,0.00,,BKN220,0.00,VWS V13.01,2013-04-05 18:05:00,
2013-04-05 12:10:00,70.3,18.9,29.78,SE,124,2.7,5.4,14,0.00,,BKN220,0.00,VWS V13.01,2013-04-05 18:10:00,
2013-04-05 12:15:00,70.3,18.9,29.78,ESE,120,3.1,6.3,14,0.00,,BKN220,0.00,VWS V13.01,2013-04-05 18:15:00,
2013-04-05 12:20:00,70.2,18.8,29.78,SE,129,4.9,8.1,14,0.00,,BKN220,0.00,VWS V13.01,2013-04-05 18:20:00,
2013-04-05 12:25:00,70.5,19.1,29.78,SSE,160,2.2,8.1,14,0.00,,BKN220,0.00,VWS V13.01,2013-04-05 18:25:00,
2013-04-05 12:30:00,70.9,19.4,29.78,SW,216,3.1,8.1,14,0.00,,BKN220,0.00,VWS V13.01,2013-04-05 18:30:00,
2013-04-05 12:35:00,71.4,19.8,29.78,SE,141,2.2,5.4,14,0.00,,BKN220,0.00,VWS V13.01,2013-04-05 18:35:00,
2013-04-05 12:40:00,71.6,19.9,29.78,East,95,2.7,5.8,14,0.00,,BKN220,0.00,VWS V13.01,2013-04-05 18:40:00,
2013-04-05 12:45:00,71.4,19.8,29.75,NE,43,2.7,5.8,14,0.00,,BKN220,0.00,VWS V13.01,2013-04-05 18:45:00,
2013-04-05 12:50:00,71.8,20.1,29.75,NE,45,2.7,4.0,14,0.00,,BKN220,0.00,VWS V13.01,2013-04-05 18:50:00,
2013-04-05 12:55:00,71.4,19.8,29.75,East,92,4.0,6.3,14,0.00,,BKN220,0.00,VWS V13.01,2013-04-05 18:55:00,
2013-04-05 13:01:00,71.6,19.9,29.75,ESE,110,6.3,8.1,14,0.00,,BKN220,0.00,VWS V13.01,2013-04-05 19:01:00,
2013-04-05 13:06:00,72.3,20.5,29.75,SE,124,3.6,5.8,14,0.00,,BKN220,0.00,VWS V13.01,2013-04-05 19:06:00,
2013-04-05 13:10:00,73.2,21.2,29.75,SW,221,4.9,5.8,14,0.00,,BKN220,0.00,VWS V13.01,2013-04-05 19:10:00,
2013-04-05 13:16:00,73.9,20.0,29.75,SE,135,3.6,6.3,13,0.00,,BKN220,0.00,VWS V13.01,2013-04-05 19:16:00,
2013-04-05 13:21:00,73.9,20.0,29.75,WNW,295,4.0,5.8,13,0.00,,BKN220,0.00,VWS V13.01,2013-04-05 19:21:00,
2013-04-05 13:26:00,74.3,20.3,29.75,East,97,3.6,5.8,13,0.00,,BKN220,0.00,VWS V13.01,2013-04-05 19:26:00,
2013-04-05 13:31:00,74.3,20.3,29.75,WNW,301,3.6,5.8,13,0.00,,BKN220,0.00,VWS V13.01,2013-04-05 19:31:00,
2013-04-05 13:36:00,74.3,20.3,29.75,North,0,5.4,8.1,13,0.00,,BKN220,0.00,VWS V13.01,2013-04-05 19:36:00,
2013-04-05 13:41:00,75.0,20.9,29.75,NW,322,4.0,8.1,13,0.00,,BKN220,0.00,VWS V13.01,2013-04-05 19:41:00,
2013-04-05 13:47:00,76.1,21.7,29.72,NNW,334,4.9,5.4,13,0.00,,BKN220,0.00,VWS V13.01,2013-04-05 19:47:00,
2013-04-05 13:52:00,76.8,22.3,29.72,WSW,247,4.9,8.3,13,0.00,,BKN220,0.00,VWS V13.01,2013-04-05 19:52:00,
2013-04-05 13:57:00,77.0,22.4,29.72,NW,321,3.6,8.3,13,0.00,,BKN220,0.00,VWS V13.01,2013-04-05 19:57:00,
2013-04-05 14:02:00,76.6,22.1,29.72,SE,134,4.9,4.9,13,0.00,,BKN220,0.00,VWS V13.01,2013-04-05 20:02:00,
2013-04-05 14:07:00,76.5,22.0,29.72,North,0,2.7,4.9,13,0.00,,BKN220,0.00,VWS V13.01,2013-04-05 20:07:00,
2013-04-05 14:12:00,76.3,21.9,29.72,ESE,120,4.0,4.9,13,0.00,,BKN220,0.00,VWS V13.01,2013-04-05 20:12:00,
2013-04-05 14:17:00,76.1,21.7,29.72,NNW,340,3.6,4.0,13,0.00,,BKN220,0.00,VWS V13.01,2013-04-05 20:17:00,
2013-04-05 14:22:00,75.7,21.5,29.72,North,357,2.7,4.0,13,0.00,,BKN220,0.00,VWS V13.01,2013-04-05 20:22:00,
2013-04-05 14:27:00,75.7,21.5,29.72,West,264,4.5,7.2,13,0.00,,BKN220,0.00,VWS V13.01,2013-04-05 20:27:00,
2013-04-05 14:32:00,75.6,21.3,29.72,NE,52,2.7,2.7,13,0.00,,BKN220,0.00,VWS V13.01,2013-04-05 20:32:00,
2013-04-05 14:37:00,75.4,21.2,29.72,SW,236,2.2,4.0,13,0.00,,BKN220,0.00,VWS V13.01,2013-04-05 20:37:00,
2013-04-05 14:42:00,75.6,21.3,29.72,SW,221,2.7,4.0,13,0.00,,BKN220,0.00,VWS V13.01,2013-04-05 20:42:00,
2013-04-05 14:47:00,75.9,21.6,29.72,West,273,7.6,8.7,13,0.00,,BKN220,0.00,VWS V13.01,2013-04-05 20:47:00,
2013-04-05 14:52:00,75.6,21.3,29.72,North,357,7.2,8.7,13,0.00,,BKN220,0.00,VWS V13.01,2013-04-05 20:52:00,
2013-04-05 14:57:00,75.4,21.2,29.72,NW,308,2.7,8.7,13,0.00,,BKN220,0.00,VWS V13.01,2013-04-05 20:57:00,
2013-04-05 15:02:00,75.6,21.3,29.72,NW,319,0.0,4.0,13,0.00,,BKN200,0.00,VWS V13.01,2013-04-05 21:02:00,
2013-04-05 15:07:00,75.6,21.3,29.72,ESE,109,5.8,5.8,13,0.00,,BKN200,0.00,VWS V13.01,2013-04-05 21:07:00,
2013-04-05 15:12:00,75.4,21.2,29.72,ESE,121,4.9,5.8,13,0.00,,BKN200,0.00,VWS V13.01,2013-04-05 21:12:00,
2013-04-05 15:17:00,75.2,21.0,29.72,East,101,3.6,5.4,13,0.00,,BKN200,0.00,VWS V13.01,2013-04-05 21:17:00,
2013-04-05 15:22:00,74.8,20.7,29.72,ESE,122,3.1,6.3,13,0.00,,BKN200,0.00,VWS V13.01,2013-04-05 21:22:00,
2013-04-05 15:27:00,74.8,20.7,29.72,East,86,3.6,6.3,13,0.00,,BKN200,0.00,VWS V13.01,2013-04-05 21:27:00,
2013-04-05 15:32:00,74.5,20.5,29.72,ENE,75,3.1,4.9,13,0.00,,BKN200,0.00,VWS V13.01,2013-04-05 21:32:00,
2013-04-05 15:37:00,74.8,20.7,29.72,West,273,3.6,8.7,13,0.00,,BKN200,0.00,VWS V13.01,2013-04-05 21:37:00,
2013-04-05 15:42:00,74.7,20.6,29.69,WSW,250,6.3,8.7,13,0.00,,BKN200,0.00,VWS V13.01,2013-04-05 21:42:00,
2013-04-05 15:47:00,74.7,20.6,29.69,SSW,192,8.1,8.7,13,0.00,,BKN200,0.00,VWS V13.01,2013-04-05 21:47:00,
2013-04-05 15:52:00,74.5,20.5,29.69,WSW,239,3.6,10.1,13,0.00,,BKN200,0.00,VWS V13.01,2013-04-05 21:52:00,
2013-04-05 15:57:00,74.1,20.2,29.69,WSW,238,5.8,10.1,13,0.00,,BKN200,0.00,VWS V13.01,2013-04-05 21:57:00,
2013-04-05 16:02:00,73.8,19.9,29.69,WNW,284,5.4,7.2,13,0.00,,BKN200,0.00,VWS V13.01,2013-04-05 22:02:00,
2013-04-05 16:07:00,73.6,15.9,29.69,NW,315,3.1,7.2,11,0.00,,BKN200,0.00,VWS V13.01,2013-04-05 22:07:00,
2013-04-05 16:13:00,73.8,19.9,29.69,NW,320,2.7,7.2,13,0.00,,BKN200,0.00,VWS V13.01,2013-04-05 22:13:00,
2013-04-05 16:18:00,73.2,15.6,29.69,NW,310,0.0,3.6,11,0.00,,BKN200,0.00,VWS V13.01,2013-04-05 22:18:00,
2013-04-05 16:23:00,72.9,15.3,29.69,NW,319,3.6,3.6,11,0.00,,BKN200,0.00,VWS V13.01,2013-04-05 22:23:00,
2013-04-05 16:28:00,72.9,15.3,29.69,NW,318,0.0,4.0,11,0.00,,BKN200,0.00,VWS V13.01,2013-04-05 22:28:00,
2013-04-05 16:33:00,72.5,15.0,29.69,NE,46,2.2,3.6,11,0.00,,BKN200,0.00,VWS V13.01,2013-04-05 22:33:00,
2013-04-05 16:38:00,72.5,15.0,29.69,NE,49,3.1,4.9,11,0.00,,BKN200,0.00,VWS V13.01,2013-04-05 22:38:00,
2013-04-05 16:43:00,72.9,20.9,29.69,NE,56,2.7,5.4,14,0.00,,BKN200,0.00,VWS V13.01,2013-04-05 22:43:00,
2013-04-05 16:48:00,73.2,21.2,29.69,NE,48,2.7,4.0,14,0.00,,BKN200,0.00,VWS V13.01,2013-04-05 22:48:00,
2013-04-05 16:53:00,73.6,19.8,29.69,East,98,4.0,4.9,13,0.00,,BKN200,0.00,VWS V13.01,2013-04-05 22:53:00,
2013-04-05 16:58:00,73.8,19.9,29.69,ESE,105,4.0,5.8,13,0.00,,BKN200,0.00,VWS V13.01,2013-04-05 22:58:00,
2013-04-05 17:03:00,73.6,19.8,29.69,North,357,2.7,4.0,13,0.00,,BKN200,0.00,VWS V13.01,2013-04-05 23:03:00,
2013-04-05 17:08:00,72.7,15.2,29.69,NE,52,3.1,4.9,11,0.00,,BKN200,0.00,VWS V13.01,2013-04-05 23:08:00,
2013-04-05 17:13:00,72.1,14.8,29.69,NNW,339,2.7,6.3,11,0.00,,BKN200,0.00,VWS V13.01,2013-04-05 23:13:00,
2013-04-05 17:18:00,71.6,14.4,29.69,NE,46,2.7,4.0,11,0.00,,BKN200,0.00,VWS V13.01,2013-04-05 23:18:00,
2013-04-05 17:23:00,71.4,16.2,29.69,NW,312,4.0,5.4,12,0.00,,BKN200,0.00,VWS V13.01,2013-04-05 23:23:00,
2013-04-05 17:28:00,71.4,16.2,29.69,NW,325,2.2,5.4,12,0.00,,BKN200,0.00,VWS V13.01,2013-04-05 23:28:00,
2013-04-05 17:33:00,71.2,16.1,29.69,West,274,6.3,8.1,12,0.00,,BKN200,0.00,VWS V13.01,2013-04-05 23:33:00,
2013-04-05 17:38:00,71.1,15.9,29.69,West,273,5.4,8.1,12,0.00,,BKN200,0.00,VWS V13.01,2013-04-05 23:38:00,
2013-04-05 17:43:00,70.9,15.8,29.69,WNW,287,4.9,8.1,12,0.00,,BKN200,0.00,VWS V13.01,2013-04-05 23:43:00,
2013-04-05 17:48:00,70.3,15.4,29.69,North,350,0.0,3.1,12,0.00,,BKN200,0.00,VWS V13.01,2013-04-05 23:48:00,
2013-04-05 17:53:00,70.0,15.1,29.69,NNW,327,3.6,3.6,12,0.00,,BKN200,0.00,VWS V13.01,2013-04-05 23:53:00,
2013-04-05 17:58:00,69.8,14.9,29.69,NNW,348,0.0,4.0,12,0.00,,BKN200,0.00,VWS V13.01,2013-04-05 23:58:00,
2013-04-05 18:03:00,69.8,14.9,29.69,North,357,0.0,3.1,12,0.00,,BKN200,0.00,VWS V13.01,2013-04-06 00:03:00,
2013-04-05 18:08:00,70.2,15.2,29.69,North,357,0.0,3.1,12,0.00,,BKN200,0.00,VWS V13.01,2013-04-06 00:08:00,
2013-04-05 18:13:00,70.5,15.5,29.69,ENE,66,3.6,6.3,12,0.00,,BKN200,0.00,VWS V13.01,2013-04-06 00:13:00,
2013-04-05 18:18:00,70.9,15.8,29.69,NE,52,5.4,5.8,12,0.00,,BKN200,0.00,VWS V13.01,2013-04-06 00:18:00,
2013-04-05 18:23:00,70.9,15.8,29.69,NE,54,4.0,6.3,12,0.00,,BKN200,0.00,VWS V13.01,2013-04-06 00:23:00,
2013-04-05 18:28:00,70.9,15.8,29.69,NE,39,3.6,6.3,12,0.00,,BKN200,0.00,VWS V13.01,2013-04-06 00:28:00,
2013-04-05 18:33:00,70.9,15.8,29.69,East,98,4.0,6.3,12,0.00,,BKN200,0.00,VWS V13.01,2013-04-06 00:33:00,
2013-04-05 18:38:00,71.1,15.9,29.69,ENE,70,3.1,6.3,12,0.00,,BKN200,0.00,VWS V13.01,2013-04-06 00:38:00,
2013-04-05 18:43:00,70.9,15.8,29.69,NE,38,3.1,6.3,12,0.00,,BKN200,0.00,VWS V13.01,2013-04-06 00:43:00,
2013-04-05 18:48:00,70.5,15.5,29.69,NE,54,0.0,0.0,12,0.00,,BKN200,0.00,VWS V13.01,2013-04-06 00:48:00,
2013-04-05 18:53:00,70.2,15.2,29.69,ENE,60,0.0,3.1,12,0.00,,BKN200,0.00,VWS V13.01,2013-04-06 00:53:00,
2013-04-05 18:58:00,69.8,14.9,29.69,North,0,0.0,3.6,12,0.00,,BKN200,0.00,VWS V13.01,2013-04-06 00:58:00,
2013-04-05 19:04:00,69.3,14.5,29.69,NE,48,2.2,4.0,12,0.00,,BKN200,0.00,VWS V13.01,2013-04-06 01:04:00,
2013-04-05 19:09:00,68.7,14.1,29.69,ENE,57,0.0,4.0,12,0.00,,BKN200,0.00,VWS V13.01,2013-04-06 01:09:00,
2013-04-05 19:14:00,68.2,13.7,29.69,North,0,0.0,4.0,12,0.00,,BKN200,0.00,VWS V13.01,2013-04-06 01:14:00,
2013-04-05 19:19:00,67.8,13.4,29.69,North,0,0.0,0.0,12,0.00,,BKN200,0.00,VWS V13.01,2013-04-06 01:19:00,
2013-04-05 19:24:00,67.3,13.0,29.69,North,0,0.0,0.0,12,0.00,,BKN200,0.00,VWS V13.01,2013-04-06 01:24:00,
2013-04-05 19:30:00,67.1,12.8,29.72,WNW,293,3.1,4.9,12,0.00,,BKN200,0.00,VWS V13.01,2013-04-06 01:30:00,
2013-04-05 19:35:00,66.7,12.5,29.72,West,277,0.0,3.1,12,0.00,,BKN200,0.00,VWS V13.01,2013-04-06 01:35:00,
2013-04-05 19:40:00,66.4,12.3,29.72,WNW,295,7.6,8.1,12,0.00,,BKN200,0.00,VWS V13.01,2013-04-06 01:40:00,
2013-04-05 19:45:00,66.2,12.1,29.72,West,272,6.3,10.5,12,0.00,,BKN200,0.00,VWS V13.01,2013-04-06 01:45:00,
2013-04-05 19:50:00,66.0,13.8,29.72,WNW,290,4.9,8.3,13,0.00,,BKN200,0.00,VWS V13.01,2013-04-06 01:50:00,
2013-04-05 19:55:00,65.8,13.6,29.72,WNW,293,6.3,11.0,13,0.00,,BKN200,0.00,VWS V13.01,2013-04-06 01:55:00,
2013-04-05 20:00:00,65.5,13.4,29.72,West,277,6.3,13.6,13,0.00,,BKN200,0.00,VWS V13.01,2013-04-06 02:00:00,
2013-04-05 20:05:00,65.1,13.1,29.72,NW,307,4.5,7.6,13,0.00,,BKN100,0.00,VWS V13.01,2013-04-06 02:05:00,
2013-04-05 20:10:00,64.8,12.8,29.72,NW,321,4.9,7.6,13,0.00,,BKN100,0.00,VWS V13.01,2013-04-06 02:10:00,
2013-04-05 20:16:00,64.4,12.5,29.72,West,277,3.6,7.6,13,0.00,,BKN100,0.00,VWS V13.01,2013-04-06 02:16:00,
2013-04-05 20:21:00,64.2,12.4,29.72,West,279,2.7,8.1,13,0.00,,BKN100,0.00,VWS V13.01,2013-04-06 02:21:00,
2013-04-05 20:25:00,63.7,11.9,29.72,NNW,327,7.6,8.1,13,0.00,,BKN100,0.00,VWS V13.01,2013-04-06 02:25:00,
2013-04-05 20:30:00,63.5,11.8,29.75,NW,321,8.7,10.1,13,0.00,,BKN100,0.00,VWS V13.01,2013-04-06 02:30:00,
2013-04-05 20:36:00,63.0,11.4,29.75,NNW,342,8.3,10.5,13,0.00,,BKN100,0.00,VWS V13.01,2013-04-06 02:36:00,
2013-04-05 20:41:00,62.6,15.8,29.75,NW,306,2.7,14.5,16,0.00,,BKN100,0.00,VWS V13.01,2013-04-06 02:41:00,
2013-04-05 20:46:00,61.9,15.2,29.78,SW,222,11.0,20.6,16,0.00,,BKN100,0.00,VWS V13.01,2013-04-06 02:46:00,
2013-04-05 20:51:00,61.2,14.6,29.78,NW,318,10.1,28.4,16,0.00,,BKN100,0.00,VWS V13.01,2013-04-06 02:51:00,
2013-04-05 20:56:00,60.4,15.4,29.78,WSW,257,13.2,28.4,17,0.00,,BKN100,0.00,VWS V13.01,2013-04-06 02:56:00,
2013-04-05 21:01:00,59.5,17.3,29.81,NW,316,20.1,20.1,19,0.00,,BKN100,0.00,VWS V13.01,2013-04-06 03:01:00,
2013-04-05 21:06:00,58.8,16.7,29.81,NW,306,19.2,24.6,19,0.00,,BKN200,0.00,VWS V13.01,2013-04-06 03:06:00,
2013-04-05 21:12:00,57.9,19.3,29.81,WNW,291,14.1,27.5,22,0.00,,BKN200,0.00,VWS V13.01,2013-04-06 03:12:00,
2013-04-05 21:17:00,57.0,21.6,29.81,WNW,297,23.3,23.3,25,0.00,,BKN200,0.00,VWS V13.01,2013-04-06 03:17:00,
2013-04-05 21:22:00,55.9,21.6,29.81,WNW,293,16.3,28.4,26,0.00,,BKN200,0.00,VWS V13.01,2013-04-06 03:22:00,
2013-04-05 21:27:00,55.6,22.1,29.81,WNW,282,16.8,28.4,27,0.00,,BKN200,0.00,VWS V13.01,2013-04-06 03:27:00,
2013-04-05 21:32:00,55.0,22.5,29.81,WNW,292,13.6,22.8,28,0.00,,BKN200,0.00,VWS V13.01,2013-04-06 03:32:00,
2013-04-05 21:37:00,54.9,22.4,29.81,NW,311,19.2,22.8,28,0.00,,BKN200,0.00,VWS V13.01,2013-04-06 03:37:00,
2013-04-05 21:42:00,54.7,22.2,29.81,West,268,10.5,23.7,28,0.00,,BKN200,0.00,VWS V13.01,2013-04-06 03:42:00,
2013-04-05 21:47:00,54.5,22.1,29.81,NNW,333,10.5,11.0,28,0.00,,BKN200,0.00,VWS V13.01,2013-04-06 03:47:00,
2013-04-05 21:52:00,54.3,21.9,29.81,WNW,291,8.7,16.3,28,0.00,,BKN200,0.00,VWS V13.01,2013-04-06 03:52:00,
2013-04-05 21:57:00,54.1,21.8,29.84,NW,304,7.6,16.3,28,0.00,,BKN200,0.00,VWS V13.01,2013-04-06 03:57:00,
2013-04-05 22:00:00,54.1,21.8,29.84,WSW,255,10.1,16.3,28,0.00,,BKN200,0.00,VWS V13.01,2013-04-06 04:00:00,
2013-04-05 22:05:00,53.8,21.5,29.84,West,279,5.8,11.0,28,0.00,,BKN200,0.00,VWS V13.01,2013-04-06 04:05:00,
2013-04-05 22:10:00,53.8,21.5,29.84,WNW,282,2.2,11.0,28,0.00,,BKN200,0.00,VWS V13.01,2013-04-06 04:10:00,
2013-04-05 22:15:00,53.6,21.3,29.81,West,261,4.0,11.0,28,0.00,,BKN200,0.00,VWS V13.01,2013-04-06 04:15:00,
2013-04-05 22:20:00,53.6,21.3,29.81,WNW,294,3.1,5.8,28,0.00,,BKN200,0.00,VWS V13.01,2013-04-06 04:20:00,
2013-04-05 22:25:00,53.4,22.0,29.81,West,281,4.0,5.8,29,0.00,,BKN200,0.00,VWS V13.01,2013-04-06 04:25:00,
2013-04-05 22:30:00,53.4,22.0,29.81,WNW,291,8.3,8.7,29,0.00,,BKN200,0.00,VWS V13.01,2013-04-06 04:30:00,
2013-04-05 22:35:00,53.4,21.1,29.81,NW,312,5.8,8.7,28,0.00,,BKN200,0.00,VWS V13.01,2013-04-06 04:35:00,
2013-04-05 22:40:00,53.4,21.1,29.81,NW,308,4.9,8.7,28,0.00,,BKN200,0.00,VWS V13.01,2013-04-06 04:40:00,
2013-04-05 22:45:00,53.4,21.1,29.84,NW,310,4.9,8.7,28,0.00,,BKN200,0.00,VWS V13.01,2013-04-06 04:45:00,
2013-04-05 22:50:00,53.4,21.1,29.84,NNW,337,6.3,10.5,28,0.00,,BKN200,0.00,VWS V13.01,2013-04-06 04:50:00,
2013-04-05 22:55:00,53.6,20.5,29.84,NW,315,10.1,11.0,27,0.00,,BKN200,0.00,VWS V13.01,2013-04-06 04:55:00,
2013-04-05 23:00:00,53.6,20.5,29.81,WNW,297,4.0,11.0,27,0.00,,BKN200,0.00,VWS V13.01,2013-04-06 05:00:00,
2013-04-05 23:05:00,53.6,20.5,29.81,WNW,282,4.0,8.1,27,0.00,,BKN220,0.00,VWS V13.01,2013-04-06 05:05:00,
2013-04-05 23:10:00,53.4,20.3,29.81,WNW,294,6.3,8.1,27,0.00,,BKN220,0.00,VWS V13.01,2013-04-06 05:10:00,
2013-04-05 23:15:00,53.4,20.3,29.84,WNW,289,5.4,8.1,27,0.00,,BKN220,0.00,VWS V13.01,2013-04-06 05:15:00,
2013-04-05 23:20:00,53.4,20.3,29.84,WNW,288,7.2,10.1,27,0.00,,BKN220,0.00,VWS V13.01,2013-04-06 05:20:00,
2013-04-05 23:26:00,53.4,20.3,29.84,WNW,300,4.0,10.1,27,0.00,,BKN220,0.00,VWS V13.01,2013-04-06 05:26:00,
2013-04-05 23:31:00,53.8,19.7,29.84,NNW,327,11.0,12.8,26,0.00,,BKN220,0.00,VWS V13.01,2013-04-06 05:31:00,
2013-04-05 23:36:00,54.0,19.9,29.84,WSW,246,8.7,19.7,26,0.00,,BKN220,0.00,VWS V13.01,2013-04-06 05:36:00,
2013-04-05 23:41:00,54.0,19.9,29.84,West,276,15.4,19.7,26,0.00,,BKN220,0.00,VWS V13.01,2013-04-06 05:41:00,
2013-04-05 23:46:00,54.0,19.9,29.84,West,261,8.7,8.7,26,0.00,,BKN220,0.00,VWS V13.01,2013-04-06 05:46:00,
2013-04-05 23:51:00,54.0,19.9,29.84,NW,316,9.2,23.3,26,0.00,,BKN220,0.00,VWS V13.01,2013-04-06 05:51:00,
2013-04-05 23:56:00,54.1,19.1,29.84,West,271,15.9,23.7,25,0.00,,BKN220,0.00,VWS V13.01,2013-04-06 05:56:00,